TimeEST,TemperatureF,Dew PointF,Humidity,Sea Level PressureIn,VisibilityMPH,Wind Direction,Wind SpeedMPH,Gust SpeedMPH,PrecipitationIn,Events,Conditions,WindDirDegrees,DateUTC
12:53 AM,48.9,25.0,39,30.17,10.0,East,4.6,-,N/A,,Clear,90,2013-11-20 05:53:00
1:53 AM,48.0,25.0,41,30.17,10.0,East,8.1,-,N/A,,Clear,90,2013-11-20 06:53:00
2:53 AM,46.9,25.0,42,30.18,10.0,East,9.2,-,N/A,,Clear,90,2013-11-20 07:53:00
3:53 AM,46.9,25.0,42,30.19,10.0,East,9.2,-,N/A,,Clear,80,2013-11-20 08:53:00
4:53 AM,44.1,27.0,51,30.22,10.0,ENE,9.2,-,N/A,,Clear,60,2013-11-20 09:53:00
5:53 AM,42.1,28.0,58,30.24,10.0,NE,6.9,-,N/A,,Clear,40,2013-11-20 10:53:00
6:53 AM,41.0,28.0,60,30.26,10.0,NE,8.1,-,N/A,,Clear,50,2013-11-20 11:53:00
7:53 AM,42.1,28.9,60,30.28,10.0,ENE,10.4,-,N/A,,Clear,70,2013-11-20 12:53:00
8:53 AM,46.0,30.0,54,30.31,10.0,ENE,13.8,20.7,N/A,,Clear,70,2013-11-20 13:53:00
9:53 AM,48.0,28.9,48,30.31,10.0,East,16.1,21.9,N/A,,Clear,80,2013-11-20 14:53:00
10:53 AM,51.1,28.9,43,30.31,10.0,East,10.4,-,N/A,,Mostly Cloudy,100,2013-11-20 15:53:00
11:53 AM,52.0,30.0,43,30.29,10.0,ENE,9.2,-,N/A,,Overcast,70,2013-11-20 16:53:00
12:53 PM,55.0,30.0,38,30.27,10.0,ENE,11.5,-,N/A,,Overcast,70,2013-11-20 17:53:00
1:53 PM,55.9,30.9,39,30.24,10.0,ENE,10.4,19.6,N/A,,Mostly Cloudy,70,2013-11-20 18:53:00
2:53 PM,55.9,30.9,39,30.22,10.0,East,10.4,17.3,N/A,,Mostly Cloudy,80,2013-11-20 19:53:00
3:53 PM,55.9,32.0,40,30.23,10.0,ENE,10.4,-,N/A,,Scattered Clouds,60,2013-11-20 20:53:00
4:53 PM,55.0,32.0,42,30.24,10.0,East,9.2,-,N/A,,Mostly Cloudy,80,2013-11-20 21:53:00
5:53 PM,54.0,30.9,41,30.26,10.0,East,8.1,-,N/A,,Overcast,90,2013-11-20 22:53:00
6:53 PM,53.1,30.9,43,30.28,10.0,East,10.4,17.3,N/A,,Overcast,90,2013-11-20 23:53:00
7:53 PM,53.1,30.0,41,30.30,10.0,East,6.9,-,N/A,,Overcast,90,2013-11-21 00:53:00
8:53 PM,53.1,30.9,43,30.31,10.0,East,8.1,-,N/A,,Overcast,90,2013-11-21 01:53:00
9:53 PM,52.0,30.9,45,30.32,10.0,East,10.4,17.3,N/A,,Overcast,100,2013-11-21 02:53:00
10:53 PM,52.0,32.0,47,30.33,10.0,ENE,8.1,-,N/A,,Overcast,70,2013-11-21 03:53:00
11:53 PM,52.0,33.1,49,30.33,10.0,East,10.4,-,N/A,,Overcast,80,2013-11-21 04:53:00